Time,TemperatureF,DewpointF,PressureIn,WindDirection,WindDirectionDegrees,WindSpeedMPH,WindSpeedGustMPH,Humidity,HourlyPrecipIn,Conditions,Clouds,dailyrainin,SolarRadiationWatts/m^2,SoftwareType,DateUTC
2013-01-03 00:05:00,41.5,38.2,30.07,North,32767,-999.0,0.0,88,0.00,,,0.00,0,Wunderground v.1.15,2013-01-03 05:05:00,
2013-01-03 00:10:00,41.5,38.2,30.07,North,32767,-999.0,0.0,88,0.00,,,0.00,0,Wunderground v.1.15,2013-01-03 05:10:00,
2013-01-03 00:15:00,41.6,38.3,30.07,North,32767,-999.0,0.0,88,0.00,,,0.00,0,Wunderground v.1.15,2013-01-03 05:15:00,
2013-01-03 00:25:00,41.6,38.3,30.08,North,32767,-999.0,0.0,88,0.00,,,0.00,0,Wunderground v.1.15,2013-01-03 05:25:00,
2013-01-03 00:30:00,41.6,38.0,30.08,North,32767,-999.0,0.0,87,0.00,,,0.00,0,Wunderground v.1.15,2013-01-03 05:30:00,
2013-01-03 00:40:00,41.5,38.2,30.07,North,32767,-999.0,0.0,88,0.00,,,0.00,0,Wunderground v.1.15,2013-01-03 05:40:00,
2013-01-03 00:45:00,41.3,38.3,30.07,North,32767,-999.0,0.0,89,0.00,,,0.00,0,Wunderground v.1.15,2013-01-03 05:45:00,
2013-01-03 00:50:00,41.2,38.5,30.05,North,32767,-999.0,0.0,90,0.00,,,0.00,0,Wunderground v.1.15,2013-01-03 05:50:00,
2013-01-03 01:00:00,41.1,38.4,30.05,North,32767,-999.0,0.0,90,0.00,,,0.00,0,Wunderground v.1.15,2013-01-03 06:00:00,
2013-01-03 01:05:00,41.1,38.1,30.05,North,32767,-999.0,0.0,89,0.00,,,0.00,0,Wunderground v.1.15,2013-01-03 06:05:00,
2013-01-03 01:15:00,41.1,38.1,30.05,North,32767,-999.0,0.0,89,0.00,,,0.00,0,Wunderground v.1.15,2013-01-03 06:15:00,
2013-01-03 01:25:00,40.9,37.9,30.04,North,32767,-999.0,0.0,89,0.00,,,0.00,0,Wunderground v.1.15,2013-01-03 06:25:00,
2013-01-03 01:35:00,40.6,37.9,30.03,North,32767,-999.0,0.0,90,0.00,,,0.00,0,Wunderground v.1.15,2013-01-03 06:35:00,
2013-01-03 01:40:00,40.6,37.9,30.03,North,32767,-999.0,0.0,90,0.00,,,0.00,0,Wunderground v.1.15,2013-01-03 06:40:00,
2013-01-03 01:50:00,40.8,37.8,30.04,North,32767,-999.0,0.0,89,0.00,,,0.00,0,Wunderground v.1.15,2013-01-03 06:50:00,
2013-01-03 01:55:00,40.8,37.8,30.04,North,32767,-999.0,0.0,89,0.00,,,0.00,0,Wunderground v.1.15,2013-01-03 06:55:00,
2013-01-03 02:05:00,40.6,37.9,30.04,North,32767,-999.0,0.0,90,0.00,,,0.00,0,Wunderground v.1.15,2013-01-03 07:05:00,
2013-01-03 02:10:00,40.6,37.9,30.04,North,32767,-999.0,0.0,90,0.00,,,0.00,0,Wunderground v.1.15,2013-01-03 07:10:00,
2013-01-03 02:20:00,40.8,37.8,30.05,North,32767,-999.0,0.0,89,0.00,,,0.00,0,Wunderground v.1.15,2013-01-03 07:20:00,
2013-01-03 02:25:00,40.9,37.9,30.05,North,32767,-999.0,0.0,89,0.00,,,0.00,0,Wunderground v.1.15,2013-01-03 07:25:00,
2013-01-03 02:30:00,41.1,37.8,30.05,North,32767,-999.0,0.0,88,0.00,,,0.00,0,Wunderground v.1.15,2013-01-03 07:30:00,
2013-01-03 02:40:00,41.1,37.8,30.07,North,32767,-999.0,0.0,88,0.00,,,0.00,0,Wunderground v.1.15,2013-01-03 07:40:00,
2013-01-03 02:50:00,40.9,37.9,30.06,North,32767,-999.0,0.0,89,0.00,,,0.00,0,Wunderground v.1.15,2013-01-03 07:50:00,
2013-01-03 02:55:00,40.9,37.9,30.06,North,32767,-999.0,0.0,89,0.00,,,0.00,0,Wunderground v.1.15,2013-01-03 07:55:00,
2013-01-03 03:00:00,40.8,37.8,30.06,North,32767,-999.0,0.0,89,0.00,,,0.00,0,Wunderground v.1.15,2013-01-03 08:00:00,
2013-01-03 03:10:00,40.8,38.1,30.06,North,32767,-999.0,0.0,90,0.00,,,0.00,0,Wunderground v.1.15,2013-01-03 08:10:00,
2013-01-03 03:15:00,40.6,37.9,30.06,North,32767,-999.0,0.0,90,0.00,,,0.00,0,Wunderground v.1.15,2013-01-03 08:15:00,
2013-01-03 03:25:00,40.8,38.1,30.06,North,32767,-999.0,0.0,90,0.00,,,0.00,0,Wunderground v.1.15,2013-01-03 08:25:00,
2013-01-03 03:30:00,40.9,37.9,30.06,North,32767,-999.0,0.0,89,0.00,,,0.00,0,Wunderground v.1.15,2013-01-03 08:30:00,
2013-01-03 03:40:00,41.1,37.5,30.07,North,32767,-999.0,0.0,87,0.00,,,0.00,0,Wunderground v.1.15,2013-01-03 08:40:00,
2013-01-03 03:45:00,41.1,37.8,30.07,North,32767,-999.0,0.0,88,0.00,,,0.00,0,Wunderground v.1.15,2013-01-03 08:45:00,
2013-01-03 03:50:00,41.2,37.6,30.07,North,32767,-999.0,0.0,87,0.00,,,0.00,0,Wunderground v.1.15,2013-01-03 08:50:00,
2013-01-03 03:55:00,41.2,37.9,30.07,North,32767,-999.0,0.0,88,0.00,,,0.00,0,Wunderground v.1.15,2013-01-03 08:55:00,
2013-01-03 04:05:00,40.9,37.9,30.05,North,32767,-999.0,0.0,89,0.00,,,0.00,0,Wunderground v.1.15,2013-01-03 09:05:00,
2013-01-03 04:15:00,40.8,38.1,30.05,North,32767,-999.0,0.0,90,0.00,,,0.00,0,Wunderground v.1.15,2013-01-03 09:15:00,
2013-01-03 04:20:00,40.8,37.8,30.05,North,32767,-999.0,0.0,89,0.00,,,0.00,0,Wunderground v.1.15,2013-01-03 09:20:00,
2013-01-03 04:30:00,40.8,38.1,30.05,North,32767,-999.0,0.0,90,0.00,,,0.00,0,Wunderground v.1.15,2013-01-03 09:30:00,
2013-01-03 04:35:00,40.6,37.9,30.05,North,32767,-999.0,0.0,90,0.00,,,0.00,0,Wunderground v.1.15,2013-01-03 09:35:00,
2013-01-03 04:45:00,40.8,37.8,30.05,North,32767,-999.0,0.0,89,0.00,,,0.00,0,Wunderground v.1.15,2013-01-03 09:45:00,
2013-01-03 04:50:00,40.6,37.6,30.05,North,32767,-999.0,0.0,89,0.00,,,0.00,0,Wunderground v.1.15,2013-01-03 09:50:00,
2013-01-03 04:55:00,40.6,37.6,30.05,North,32767,-999.0,0.0,89,0.00,,,0.00,0,Wunderground v.1.15,2013-01-03 09:55:00,
2013-01-03 05:05:00,40.6,37.6,30.05,North,32767,-999.0,0.0,89,0.00,,,0.00,0,Wunderground v.1.15,2013-01-03 10:05:00,
2013-01-03 05:10:00,40.6,37.6,30.05,North,32767,-999.0,0.0,89,0.00,,,0.00,0,Wunderground v.1.15,2013-01-03 10:10:00,
2013-01-03 05:15:00,40.5,37.5,30.05,North,32767,-999.0,0.0,89,0.00,,,0.00,0,Wunderground v.1.15,2013-01-03 10:15:00,
2013-01-03 05:25:00,40.5,37.2,30.06,North,32767,-999.0,0.0,88,0.00,,,0.00,0,Wunderground v.1.15,2013-01-03 10:25:00,
2013-01-03 05:30:00,40.5,37.2,30.06,North,32767,-999.0,0.0,88,0.00,,,0.00,0,Wunderground v.1.15,2013-01-03 10:30:00,
2013-01-03 05:35:00,40.3,37.0,30.06,North,32767,-999.0,0.0,88,0.00,,,0.00,0,Wunderground v.1.15,2013-01-03 10:35:00,
2013-01-03 05:45:00,40.2,37.2,30.06,North,32767,-999.0,0.0,89,0.00,,,0.00,0,Wunderground v.1.15,2013-01-03 10:45:00,
2013-01-03 05:50:00,40.2,37.2,30.06,North,32767,-999.0,0.0,89,0.00,,,0.00,0,Wunderground v.1.15,2013-01-03 10:50:00,
2013-01-03 06:00:00,40.3,37.3,30.06,North,32767,-999.0,0.0,89,0.00,,,0.00,0,Wunderground v.1.15,2013-01-03 11:00:00,
2013-01-03 06:05:00,40.3,37.3,30.06,North,32767,-999.0,0.0,89,0.00,,,0.00,0,Wunderground v.1.15,2013-01-03 11:05:00,
2013-01-03 07:30:00,40.3,37.0,30.08,North,32767,-999.0,0.0,88,0.00,,,0.00,0,Wunderground v.1.15,2013-01-03 12:30:00,
2013-01-03 07:35:00,40.3,37.0,30.08,North,32767,-999.0,0.0,88,0.00,,,0.00,0,Wunderground v.1.15,2013-01-03 12:35:00,
2013-01-03 07:45:00,40.2,36.9,30.08,North,32767,-999.0,0.0,88,0.00,,,0.00,0,Wunderground v.1.15,2013-01-03 12:45:00,
2013-01-03 07:50:00,40.2,36.9,30.08,North,32767,-999.0,0.0,88,0.00,,,0.00,0,Wunderground v.1.15,2013-01-03 12:50:00,
2013-01-03 08:00:00,40.2,36.9,30.08,North,32767,-999.0,0.0,88,0.00,,,0.00,0,Wunderground v.1.15,2013-01-03 13:00:00,
2013-01-03 08:05:00,40.2,36.9,30.08,North,32767,-999.0,0.0,88,0.00,,,0.00,7,Wunderground v.1.15,2013-01-03 13:05:00,
2013-01-03 08:15:00,40.2,36.9,30.08,North,32767,-999.0,0.0,88,0.00,,,0.00,12,Wunderground v.1.15,2013-01-03 13:15:00,
2013-01-03 08:20:00,40.3,37.0,30.09,North,32767,-999.0,0.0,88,0.00,,,0.00,18,Wunderground v.1.15,2013-01-03 13:20:00,
2013-01-03 08:30:00,40.5,36.9,30.09,North,32767,-999.0,0.0,87,0.00,,,0.00,18,Wunderground v.1.15,2013-01-03 13:30:00,
2013-01-03 08:35:00,40.6,37.3,30.09,North,32767,-999.0,0.0,88,0.00,,,0.00,16,Wunderground v.1.15,2013-01-03 13:35:00,
2013-01-03 08:45:00,40.6,37.3,30.09,North,32767,-999.0,0.0,88,0.00,,,0.00,16,Wunderground v.1.15,2013-01-03 13:45:00,
2013-01-03 08:50:00,40.6,37.3,30.10,North,32767,-999.0,0.0,88,0.00,,,0.00,16,Wunderground v.1.15,2013-01-03 13:50:00,
2013-01-03 08:55:00,40.8,37.2,30.10,North,32767,-999.0,0.0,87,0.00,,,0.00,18,Wunderground v.1.15,2013-01-03 13:55:00,
2013-01-03 09:00:00,40.8,37.5,30.10,North,32767,-999.0,0.0,88,0.00,,,0.00,28,Wunderground v.1.15,2013-01-03 14:00:00,
2013-01-03 09:10:00,40.8,36.9,30.10,North,32767,-999.0,0.0,86,0.00,,,0.00,67,Wunderground v.1.15,2013-01-03 14:10:00,
2013-01-03 09:20:00,40.9,37.0,30.10,North,32767,-999.0,0.0,86,0.00,,,0.00,76,Wunderground v.1.15,2013-01-03 14:20:00,
2013-01-03 09:25:00,41.1,37.2,30.10,North,32767,-999.0,0.0,86,0.00,,,0.00,51,Wunderground v.1.15,2013-01-03 14:25:00,
2013-01-03 09:30:00,41.2,37.0,30.10,North,32767,-999.0,0.0,85,0.00,,,0.00,48,Wunderground v.1.15,2013-01-03 14:30:00,
2013-01-03 09:35:00,41.1,36.9,30.11,North,32767,-999.0,0.0,85,0.00,,,0.00,48,Wunderground v.1.15,2013-01-03 14:35:00,
2013-01-03 09:45:00,41.1,36.9,30.11,North,32767,-999.0,0.0,85,0.00,,,0.00,32,Wunderground v.1.15,2013-01-03 14:45:00,
2013-01-03 09:55:00,41.1,36.9,30.11,North,32767,-999.0,0.0,85,0.00,,,0.00,102,Wunderground v.1.15,2013-01-03 14:55:00,
2013-01-03 10:05:00,41.3,36.5,30.12,North,32767,-999.0,0.0,83,0.00,,,0.00,79,Wunderground v.1.15,2013-01-03 15:05:00,
2013-01-03 10:10:00,41.6,36.8,30.12,North,32767,-999.0,0.0,83,0.00,,,0.00,104,Wunderground v.1.15,2013-01-03 15:10:00,
2013-01-03 10:20:00,41.8,36.4,30.12,North,32767,-999.0,0.0,81,0.00,,,0.00,91,Wunderground v.1.15,2013-01-03 15:20:00,
2013-01-03 10:25:00,41.8,36.1,30.12,North,32767,-999.0,0.0,80,0.00,,,0.00,84,Wunderground v.1.15,2013-01-03 15:25:00,
2013-01-03 10:35:00,41.9,36.8,30.12,North,32767,-999.0,0.0,82,0.00,,,0.00,107,Wunderground v.1.15,2013-01-03 15:35:00,
2013-01-03 10:45:00,42.1,36.7,30.12,North,32767,-999.0,0.0,81,0.00,,,0.00,109,Wunderground v.1.15,2013-01-03 15:45:00,
2013-01-03 10:55:00,42.3,35.9,30.12,North,32767,-999.0,0.0,78,0.00,,,0.00,79,Wunderground v.1.15,2013-01-03 15:55:00,
2013-01-03 11:00:00,42.3,36.3,30.12,North,32767,-999.0,0.0,79,0.00,,,0.00,118,Wunderground v.1.15,2013-01-03 16:00:00,
2013-01-03 11:10:00,42.5,36.1,30.12,ENE,68,0.0,0.0,78,0.00,,,0.00,164,Wunderground v.1.15,2013-01-03 16:10:00,
2013-01-03 11:15:00,42.6,36.5,30.12,ENE,68,0.0,0.0,79,0.00,,,0.00,188,Wunderground v.1.15,2013-01-03 16:15:00,
2013-01-03 11:20:00,42.9,36.2,30.10,ENE,68,0.0,0.0,77,0.00,,,0.00,194,Wunderground v.1.15,2013-01-03 16:20:00,
2013-01-03 11:30:00,43.2,35.5,30.10,SE,126,0.0,0.0,74,0.00,,,0.00,164,Wunderground v.1.15,2013-01-03 16:30:00,
2013-01-03 11:40:00,43.2,35.5,30.09,East,89,0.0,0.0,74,0.00,,,0.00,128,Wunderground v.1.15,2013-01-03 16:40:00,
2013-01-03 11:45:00,43.1,35.4,30.09,East,89,0.0,0.0,74,0.00,,,0.00,114,Wunderground v.1.15,2013-01-03 16:45:00,
2013-01-03 11:55:00,42.9,35.2,30.08,North,32767,-999.0,0.0,74,0.00,,,0.00,144,Wunderground v.1.15,2013-01-03 16:55:00,
2013-01-03 12:00:00,43.1,34.7,30.08,North,32767,-999.0,0.0,72,0.00,,,0.00,113,Wunderground v.1.15,2013-01-03 17:00:00,
2013-01-03 12:10:00,43.8,35.0,30.08,East,100,0.0,0.0,71,0.00,,,0.00,169,Wunderground v.1.15,2013-01-03 17:10:00,
2013-01-03 12:15:00,43.9,34.7,30.08,East,89,0.0,0.0,70,0.00,,,0.00,130,Wunderground v.1.15,2013-01-03 17:15:00,
2013-01-03 12:25:00,43.9,34.7,30.07,East,95,0.0,0.0,70,0.00,,,0.00,116,Wunderground v.1.15,2013-01-03 17:25:00,
2013-01-03 12:30:00,43.9,35.1,30.07,ENE,71,0.0,0.0,71,0.00,,,0.00,141,Wunderground v.1.15,2013-01-03 17:30:00,
2013-01-03 12:35:00,43.9,35.8,30.07,East,89,0.0,0.0,73,0.00,,,0.00,187,Wunderground v.1.15,2013-01-03 17:35:00,
2013-01-03 12:45:00,44.2,34.7,30.07,SSE,148,0.0,0.0,69,0.00,,,0.00,174,Wunderground v.1.15,2013-01-03 17:45:00,
2013-01-03 12:55:00,44.5,34.2,30.06,SSE,148,0.0,0.0,67,0.00,,,0.00,179,Wunderground v.1.15,2013-01-03 17:55:00,
2013-01-03 13:05:00,44.8,34.9,30.04,ENE,75,0.0,0.0,68,0.00,,,0.00,183,Wunderground v.1.15,2013-01-03 18:05:00,
2013-01-03 13:15:00,44.9,33.8,30.04,West,280,0.0,0.0,65,0.00,,,0.00,201,Wunderground v.1.15,2013-01-03 18:15:00,
2013-01-03 13:20:00,45.1,34.0,30.04,SSW,195,0.0,0.0,65,0.00,,,0.00,165,Wunderground v.1.15,2013-01-03 18:20:00,
2013-01-03 13:30:00,45.4,34.7,30.04,WNW,295,0.0,0.0,66,0.00,,,0.00,153,Wunderground v.1.15,2013-01-03 18:30:00,
2013-01-03 13:35:00,45.5,34.0,30.04,WNW,285,0.0,0.0,64,0.00,,,0.00,174,Wunderground v.1.15,2013-01-03 18:35:00,
2013-01-03 13:40:00,45.7,33.8,30.04,WNW,284,0.0,0.0,63,0.00,,,0.00,155,Wunderground v.1.15,2013-01-03 18:40:00,
2013-01-03 13:50:00,45.4,33.9,30.04,ENE,58,0.0,0.0,64,0.00,,,0.00,137,Wunderground v.1.15,2013-01-03 18:50:00,
2013-01-03 13:55:00,45.4,33.9,30.04,ENE,58,0.0,0.0,64,0.00,,,0.00,139,Wunderground v.1.15,2013-01-03 18:55:00,
2013-01-03 14:00:00,45.4,33.5,30.04,North,32767,-999.0,0.0,63,0.00,,,0.00,127,Wunderground v.1.15,2013-01-03 19:00:00,
2013-01-03 14:10:00,45.1,33.2,30.05,North,32767,-999.0,0.0,63,0.00,,,0.00,132,Wunderground v.1.15,2013-01-03 19:10:00,
2013-01-03 14:15:00,45.1,33.2,30.05,North,32767,-999.0,0.0,63,0.00,,,0.00,106,Wunderground v.1.15,2013-01-03 19:15:00,
2013-01-03 15:00:00,44.8,34.1,30.05,North,32767,-999.0,0.0,66,0.00,,,0.00,39,Wunderground v.1.15,2013-01-03 20:00:00,
2013-01-03 15:05:00,44.8,34.5,30.05,North,32767,-999.0,0.0,67,0.00,,,0.00,37,Wunderground v.1.15,2013-01-03 20:05:00,
2013-01-03 15:10:00,45.1,34.8,30.05,North,32767,-999.0,0.0,67,0.00,,,0.00,32,Wunderground v.1.15,2013-01-03 20:10:00,
2013-01-03 15:20:00,45.1,34.8,30.06,North,32767,-999.0,0.0,67,0.00,,,0.00,25,Wunderground v.1.15,2013-01-03 20:20:00,
2013-01-03 15:25:00,45.2,34.5,30.06,North,32767,-999.0,0.0,66,0.00,,,0.00,19,Wunderground v.1.15,2013-01-03 20:25:00,
2013-01-03 15:35:00,45.2,34.5,30.07,North,32767,-999.0,0.0,66,0.00,,,0.00,25,Wunderground v.1.15,2013-01-03 20:35:00,
2013-01-03 15:45:00,44.8,35.2,30.07,North,32767,-999.0,0.0,69,0.00,,,0.00,19,Wunderground v.1.15,2013-01-03 20:45:00,
2013-01-03 15:55:00,44.6,35.8,30.07,North,32767,-999.0,0.0,71,0.00,,,0.00,11,Wunderground v.1.15,2013-01-03 20:55:00,
2013-01-03 16:00:00,44.5,36.0,30.07,North,32767,-999.0,0.0,72,0.00,,,0.00,12,Wunderground v.1.15,2013-01-03 21:00:00,
2013-01-03 16:10:00,44.3,36.2,30.08,North,32767,-999.0,0.0,73,0.00,,,0.00,9,Wunderground v.1.15,2013-01-03 21:10:00,
2013-01-03 16:20:00,44.2,36.4,30.09,North,32767,-999.0,0.0,74,0.00,,,0.00,7,Wunderground v.1.15,2013-01-03 21:20:00,
2013-01-03 16:25:00,44.2,36.8,30.09,North,32767,-999.0,0.0,75,0.00,,,0.00,5,Wunderground v.1.15,2013-01-03 21:25:00,
2013-01-03 16:35:00,43.8,36.4,30.09,North,32767,-999.0,0.0,75,0.00,,,0.00,5,Wunderground v.1.15,2013-01-03 21:35:00,
2013-01-03 16:45:00,43.8,37.1,30.09,North,32767,-999.0,0.0,77,0.00,,,0.00,5,Wunderground v.1.15,2013-01-03 21:45:00,
2013-01-03 16:50:00,43.6,36.9,30.09,North,32767,-999.0,0.0,77,0.00,,,0.00,0,Wunderground v.1.15,2013-01-03 21:50:00,
2013-01-03 17:00:00,43.5,36.8,30.09,North,32767,-999.0,0.0,77,0.00,,,0.00,5,Wunderground v.1.15,2013-01-03 22:00:00,
2013-01-03 17:10:00,43.3,36.6,30.09,North,32767,-999.0,0.0,77,0.00,,,0.00,0,Wunderground v.1.15,2013-01-03 22:10:00,
2013-01-03 17:20:00,42.8,36.7,30.10,North,32767,-999.0,0.0,79,0.00,,,0.00,0,Wunderground v.1.15,2013-01-03 22:20:00,
2013-01-03 17:25:00,42.6,36.5,30.10,North,32767,-999.0,0.0,79,0.00,,,0.00,0,Wunderground v.1.15,2013-01-03 22:25:00,
2013-01-03 17:35:00,42.2,36.2,30.10,North,32767,-999.0,0.0,79,0.00,,,0.00,0,Wunderground v.1.15,2013-01-03 22:35:00,
2013-01-03 17:45:00,41.9,35.9,30.10,North,32767,-999.0,0.0,79,0.00,,,0.00,0,Wunderground v.1.15,2013-01-03 22:45:00,
2013-01-03 17:50:00,41.9,35.9,30.10,North,32767,-999.0,0.0,79,0.00,,,0.00,0,Wunderground v.1.15,2013-01-03 22:50:00,
2013-01-03 18:00:00,41.8,35.8,30.10,North,32767,-999.0,0.0,79,0.00,,,0.00,0,Wunderground v.1.15,2013-01-03 23:00:00,
2013-01-03 18:10:00,41.6,35.6,30.11,North,32767,-999.0,0.0,79,0.00,,,0.00,0,Wunderground v.1.15,2013-01-03 23:10:00,
2013-01-03 18:15:00,41.3,35.6,30.11,North,32767,-999.0,0.0,80,0.00,,,0.00,0,Wunderground v.1.15,2013-01-03 23:15:00,
2013-01-03 18:20:00,41.1,35.4,30.12,North,32767,-999.0,0.0,80,0.00,,,0.00,0,Wunderground v.1.15,2013-01-03 23:20:00,
2013-01-03 18:30:00,40.9,35.2,30.12,North,32767,-999.0,0.0,80,0.00,,,0.00,0,Wunderground v.1.15,2013-01-03 23:30:00,
2013-01-03 18:35:00,40.8,34.8,30.12,North,32767,-999.0,0.0,79,0.00,,,0.00,0,Wunderground v.1.15,2013-01-03 23:35:00,
2013-01-03 18:40:00,40.8,34.8,30.12,North,32767,-999.0,0.0,79,0.00,,,0.00,0,Wunderground v.1.15,2013-01-03 23:40:00,
2013-01-03 18:45:00,40.8,34.8,30.12,North,32767,-999.0,0.0,79,0.00,,,0.00,0,Wunderground v.1.15,2013-01-03 23:45:00,
2013-01-03 18:55:00,41.2,34.9,30.12,North,32767,-999.0,0.0,78,0.00,,,0.00,0,Wunderground v.1.15,2013-01-03 23:55:00,
2013-01-03 19:00:00,41.5,34.8,30.12,North,32767,-999.0,0.0,77,0.00,,,0.00,0,Wunderground v.1.15,2013-01-04 00:00:00,
2013-01-03 19:10:00,41.6,34.6,30.12,North,32767,-999.0,0.0,76,0.00,,,0.00,0,Wunderground v.1.15,2013-01-04 00:10:00,
2013-01-03 19:15:00,41.3,34.6,30.12,North,32767,-999.0,0.0,77,0.00,,,0.00,0,Wunderground v.1.15,2013-01-04 00:15:00,
2013-01-03 19:20:00,40.9,34.6,30.13,North,32767,-999.0,0.0,78,0.00,,,0.00,0,Wunderground v.1.15,2013-01-04 00:20:00,
2013-01-03 19:30:00,40.6,34.3,30.13,North,32767,-999.0,0.0,78,0.00,,,0.00,0,Wunderground v.1.15,2013-01-04 00:30:00,
2013-01-03 19:35:00,40.2,34.2,30.13,North,32767,-999.0,0.0,79,0.00,,,0.00,0,Wunderground v.1.15,2013-01-04 00:35:00,
2013-01-03 19:45:00,39.9,33.9,30.13,North,32767,-999.0,0.0,79,0.00,,,0.00,0,Wunderground v.1.15,2013-01-04 00:45:00,
2013-01-03 19:55:00,39.3,33.6,30.13,North,32767,-999.0,0.0,80,0.00,,,0.00,0,Wunderground v.1.15,2013-01-04 00:55:00,
2013-01-03 20:05:00,38.6,33.6,30.14,North,32767,-999.0,0.0,82,0.00,,,0.00,0,Wunderground v.1.15,2013-01-04 01:05:00,
2013-01-03 20:10:00,38.3,33.6,30.14,North,32767,-999.0,0.0,83,0.00,,,0.00,0,Wunderground v.1.15,2013-01-04 01:10:00,
2013-01-03 20:20:00,38.3,33.6,30.14,North,32767,-999.0,0.0,83,0.00,,,0.00,0,Wunderground v.1.15,2013-01-04 01:20:00,
2013-01-03 20:25:00,38.5,33.5,30.14,North,32767,-999.0,0.0,82,0.00,,,0.00,0,Wunderground v.1.15,2013-01-04 01:25:00,
2013-01-03 20:35:00,38.0,33.6,30.14,North,32767,-999.0,0.0,84,0.00,,,0.00,0,Wunderground v.1.15,2013-01-04 01:35:00,
2013-01-03 20:45:00,37.8,33.7,30.14,North,32767,-999.0,0.0,85,0.00,,,0.00,0,Wunderground v.1.15,2013-01-04 01:45:00,
2013-01-03 20:55:00,37.5,33.4,30.15,North,32767,-999.0,0.0,85,0.00,,,0.00,0,Wunderground v.1.15,2013-01-04 01:55:00,
2013-01-03 21:00:00,37.2,33.1,30.15,North,32767,-999.0,0.0,85,0.00,,,0.00,0,Wunderground v.1.15,2013-01-04 02:00:00,
2013-01-03 21:10:00,36.6,33.1,30.15,North,32767,-999.0,0.0,87,0.00,,,0.00,0,Wunderground v.1.15,2013-01-04 02:10:00,
2013-01-03 21:15:00,36.6,33.1,30.15,North,32767,-999.0,0.0,87,0.00,,,0.00,0,Wunderground v.1.15,2013-01-04 02:15:00,
2013-01-03 21:25:00,36.3,33.1,30.15,North,32767,-999.0,0.0,88,0.00,,,0.00,0,Wunderground v.1.15,2013-01-04 02:25:00,
2013-01-03 21:35:00,36.2,33.0,30.15,North,32767,-999.0,0.0,88,0.00,,,0.00,0,Wunderground v.1.15,2013-01-04 02:35:00,
2013-01-03 21:40:00,36.0,32.8,30.15,North,32767,-999.0,0.0,88,0.00,,,0.00,0,Wunderground v.1.15,2013-01-04 02:40:00,
2013-01-03 21:45:00,35.9,32.7,30.15,North,32767,-999.0,0.0,88,0.00,,,0.00,0,Wunderground v.1.15,2013-01-04 02:45:00,
2013-01-03 21:55:00,35.8,32.3,30.15,North,32767,-999.0,0.0,87,0.00,,,0.00,0,Wunderground v.1.15,2013-01-04 02:55:00,
2013-01-03 22:00:00,35.6,32.1,30.15,North,32767,-999.0,0.0,87,0.00,,,0.00,0,Wunderground v.1.15,2013-01-04 03:00:00,
2013-01-03 22:10:00,35.8,32.3,30.15,North,32767,-999.0,0.0,87,0.00,,,0.00,0,Wunderground v.1.15,2013-01-04 03:10:00,
2013-01-03 22:15:00,35.8,32.0,30.15,North,32767,-999.0,0.0,86,0.00,,,0.00,0,Wunderground v.1.15,2013-01-04 03:15:00,
2013-01-03 22:20:00,35.9,31.8,30.15,North,32767,-999.0,0.0,85,0.00,,,0.00,0,Wunderground v.1.15,2013-01-04 03:20:00,
2013-01-03 22:30:00,35.9,31.8,30.15,North,32767,-999.0,0.0,85,0.00,,,0.00,0,Wunderground v.1.15,2013-01-04 03:30:00,
2013-01-03 22:40:00,35.9,31.5,30.15,North,32767,-999.0,0.0,84,0.00,,,0.00,0,Wunderground v.1.15,2013-01-04 03:40:00,
2013-01-03 22:45:00,35.8,31.4,30.15,North,32767,-999.0,0.0,84,0.00,,,0.00,0,Wunderground v.1.15,2013-01-04 03:45:00,
2013-01-03 22:55:00,35.8,31.4,30.15,North,32767,-999.0,0.0,84,0.00,,,0.00,0,Wunderground v.1.15,2013-01-04 03:55:00,
2013-01-03 23:00:00,35.8,31.4,30.15,North,32767,-999.0,0.0,84,0.00,,,0.00,0,Wunderground v.1.15,2013-01-04 04:00:00,
2013-01-03 23:05:00,35.6,31.2,30.16,North,32767,-999.0,0.0,84,0.00,,,0.00,0,Wunderground v.1.15,2013-01-04 04:05:00,
2013-01-03 23:15:00,35.3,30.9,30.16,North,32767,-999.0,0.0,84,0.00,,,0.00,0,Wunderground v.1.15,2013-01-04 04:15:00,
2013-01-03 23:25:00,35.5,30.5,30.16,North,32767,-999.0,0.0,82,0.00,,,0.00,0,Wunderground v.1.15,2013-01-04 04:25:00,
2013-01-03 23:30:00,35.5,30.8,30.16,North,32767,-999.0,0.0,83,0.00,,,0.00,0,Wunderground v.1.15,2013-01-04 04:30:00,
2013-01-03 23:40:00,34.9,30.6,30.16,North,32767,-999.0,0.0,84,0.00,,,0.00,0,Wunderground v.1.15,2013-01-04 04:40:00,
2013-01-03 23:50:00,34.3,30.3,30.16,North,32767,-999.0,0.0,85,0.00,,,0.00,0,Wunderground v.1.15,2013-01-04 04:50:00,